Year,Month,Day,Hour,Minute,Value (Times are PST for temperature in C)
2021,04,17,07,59,13.70
2021,04,17,08,00,13.70
2021,04,17,08,01,13.80
2021,04,17,08,02,13.90
2021,04,17,08,03,14.00
2021,04,17,08,04,14.10
2021,04,17,08,05,14.20
2021,04,17,08,06,14.30
2021,04,17,08,07,14.40
2021,04,17,08,08,14.50
2021,04,17,08,09,14.60
2021,04,17,08,10,14.60
2021,04,17,08,11,14.80
2021,04,17,08,12,14.80
2021,04,17,08,13,14.90
2021,04,17,08,14,15.00
2021,04,17,08,15,15.10
2021,04,17,08,16,15.10
2021,04,17,08,17,15.20
2021,04,17,08,18,15.30
2021,04,17,08,19,15.40
2021,04,17,08,20,15.50
2021,04,17,08,21,15.50
2021,04,17,08,22,15.60
2021,04,17,08,23,15.70
2021,04,17,08,24,15.80
2021,04,17,08,25,15.80
2021,04,17,08,26,15.90
2021,04,17,08,27,16.00
2021,04,17,08,28,16.10
2021,04,17,08,29,16.10
2021,04,17,08,30,16.20
2021,04,17,08,31,16.20
2021,04,17,08,32,16.30
2021,04,17,08,33,16.30
2021,04,17,08,34,16.30
2021,04,17,08,35,16.40
2021,04,17,08,36,16.40
2021,04,17,08,37,16.40
2021,04,17,08,38,16.40
2021,04,17,08,39,16.60
2021,04,17,08,40,16.60
2021,04,17,08,41,16.60
2021,04,17,08,42,16.70
2021,04,17,08,43,16.70
2021,04,17,08,44,16.70
2021,04,17,08,45,16.70
2021,04,17,08,46,16.70
2021,04,17,08,47,16.70
2021,04,17,08,48,16.70
2021,04,17,08,49,16.70
2021,04,17,08,50,16.70
2021,04,17,08,51,16.70
2021,04,17,08,52,16.70
2021,04,17,08,53,16.70
2021,04,17,08,54,16.70
2021,04,17,08,55,16.70
2021,04,17,08,56,16.70
2021,04,17,08,57,16.70
2021,04,17,08,58,16.70
2021,04,17,08,59,16.70
2021,04,17,09,00,16.60
2021,04,17,09,01,16.60
2021,04,17,09,02,16.60
2021,04,17,09,03,16.60
2021,04,17,09,04,16.60
2021,04,17,09,05,16.60
2021,04,17,09,06,16.60
2021,04,17,09,07,16.60
2021,04,17,09,08,16.70
2021,04,17,09,09,16.70
2021,04,17,09,10,16.70
2021,04,17,09,11,16.70
2021,04,17,09,12,16.70
2021,04,17,09,13,16.80
2021,04,17,09,14,16.90
2021,04,17,09,15,16.90
2021,04,17,09,16,17.00
2021,04,17,09,17,17.00
2021,04,17,09,18,17.10
2021,04,17,09,19,17.20
2021,04,17,09,20,17.30
2021,04,17,09,21,17.30
2021,04,17,09,22,17.30
2021,04,17,09,23,17.30
2021,04,17,09,24,17.40
2021,04,17,09,25,17.50
2021,04,17,09,26,17.50
2021,04,17,09,27,17.50
2021,04,17,09,28,17.60
2021,04,17,09,29,17.60
2021,04,17,09,30,17.60
2021,04,17,09,31,17.70
2021,04,17,09,32,17.70
2021,04,17,09,33,17.70
2021,04,17,09,34,17.70
2021,04,17,09,35,17.60
2021,04,17,09,36,17.50
2021,04,17,09,37,17.50
2021,04,17,09,38,17.50
2021,04,17,09,39,17.50
2021,04,17,09,40,17.50
2021,04,17,09,41,17.50
2021,04,17,09,42,17.50
2021,04,17,09,43,17.50
2021,04,17,09,44,17.50
2021,04,17,09,45,17.60
2021,04,17,09,46,17.60
2021,04,17,09,47,17.70
2021,04,17,09,48,17.70
2021,04,17,09,49,17.70
2021,04,17,09,50,17.80
2021,04,17,09,51,17.80
2021,04,17,09,52,17.80
2021,04,17,09,53,17.90
2021,04,17,09,54,17.90
2021,04,17,09,55,17.90
2021,04,17,09,56,17.90
2021,04,17,09,57,17.90
2021,04,17,09,58,18.00
2021,04,17,09,59,18.10
2021,04,17,10,00,18.10
2021,04,17,10,01,18.10
2021,04,17,10,02,18.10
2021,04,17,10,03,18.20
2021,04,17,10,04,18.20
2021,04,17,10,05,18.20
2021,04,17,10,06,18.20
2021,04,17,10,07,18.20
2021,04,17,10,08,18.20
2021,04,17,10,09,18.30
2021,04,17,10,10,18.30
2021,04,17,10,11,18.40
2021,04,17,10,12,18.40
2021,04,17,10,13,18.40
2021,04,17,10,14,18.40
2021,04,17,10,15,18.40
2021,04,17,10,16,18.40
2021,04,17,10,17,18.50
2021,04,17,10,18,18.50
2021,04,17,10,19,18.50
2021,04,17,10,20,18.50
2021,04,17,10,21,18.60
2021,04,17,10,22,18.60
2021,04,17,10,23,18.60
2021,04,17,10,24,18.60
2021,04,17,10,25,18.50
2021,04,17,10,26,18.50
2021,04,17,10,27,18.50
2021,04,17,10,28,18.40
2021,04,17,10,29,18.40
2021,04,17,10,30,18.40
2021,04,17,10,31,18.50
2021,04,17,10,32,18.50
2021,04,17,10,33,18.60
2021,04,17,10,34,18.60
2021,04,17,10,35,18.60
2021,04,17,10,36,18.60
2021,04,17,10,37,18.60
2021,04,17,10,38,18.60
2021,04,17,10,39,18.60
2021,04,17,10,40,18.60
2021,04,17,10,41,18.60
2021,04,17,10,42,18.60
2021,04,17,10,43,18.60
2021,04,17,10,44,18.70
2021,04,17,10,45,18.70
2021,04,17,10,46,18.70
2021,04,17,10,47,18.70
2021,04,17,10,48,18.70
2021,04,17,10,49,18.60
2021,04,17,10,50,18.50
2021,04,17,10,51,18.50
2021,04,17,10,52,18.40
2021,04,17,10,53,18.40
2021,04,17,10,54,18.50
2021,04,17,10,55,18.50
2021,04,17,10,56,18.50
2021,04,17,10,57,18.40
2021,04,17,10,58,18.40
2021,04,17,10,59,18.40
2021,04,17,11,00,18.40
2021,04,17,11,01,18.40
2021,04,17,11,02,18.50
2021,04,17,11,03,18.50
2021,04,17,11,04,18.50
2021,04,17,11,05,18.60
2021,04,17,11,06,18.60
2021,04,17,11,07,18.70
2021,04,17,11,08,18.80
2021,04,17,11,09,18.80
2021,04,17,11,10,18.90
2021,04,17,11,11,18.80
2021,04,17,11,12,18.80
2021,04,17,11,13,18.80
2021,04,17,11,14,18.80
2021,04,17,11,15,18.90
2021,04,17,11,16,18.90
2021,04,17,11,17,18.90
2021,04,17,11,18,18.90
2021,04,17,11,19,18.90
2021,04,17,11,20,18.90
2021,04,17,11,21,18.90
2021,04,17,11,22,19.00
2021,04,17,11,23,19.10
2021,04,17,11,24,19.10
2021,04,17,11,25,19.10
2021,04,17,11,26,19.20
2021,04,17,11,27,19.20
2021,04,17,11,28,19.30
2021,04,17,11,29,19.30
2021,04,17,11,30,19.30
2021,04,17,11,31,19.40
2021,04,17,11,32,19.50
2021,04,17,11,33,19.60
2021,04,17,11,34,19.70
2021,04,17,11,35,19.70
2021,04,17,11,36,19.80
2021,04,17,11,37,19.80
2021,04,17,11,38,19.90
2021,04,17,11,39,19.90
2021,04,17,11,40,19.90
2021,04,17,11,41,20.00
2021,04,17,11,42,20.10
2021,04,17,11,43,20.10
2021,04,17,11,44,20.20
2021,04,17,11,45,20.20
2021,04,17,11,46,20.20
2021,04,17,11,47,20.20
2021,04,17,11,48,20.20
2021,04,17,11,49,20.20
2021,04,17,11,50,20.20
2021,04,17,11,51,20.30
2021,04,17,11,52,20.30
2021,04,17,11,53,20.30
2021,04,17,11,54,20.40
2021,04,17,11,55,20.40
2021,04,17,11,56,20.40
2021,04,17,11,57,20.40
2021,04,17,11,58,20.40
2021,04,17,11,59,20.40
2021,04,17,12,00,20.50
2021,04,17,12,01,20.50
2021,04,17,12,02,20.50
2021,04,17,12,03,20.50
2021,04,17,12,04,20.50
2021,04,17,12,05,20.50
2021,04,17,12,06,20.60
2021,04,17,12,07,20.60
2021,04,17,12,08,20.60
2021,04,17,12,09,20.60
2021,04,17,12,10,20.60
2021,04,17,12,11,20.70
2021,04,17,12,12,20.70
2021,04,17,12,13,20.80
2021,04,17,12,14,20.80
2021,04,17,12,15,20.90
2021,04,17,12,16,21.00
2021,04,17,12,17,21.00
2021,04,17,12,18,21.00
2021,04,17,12,19,21.00
2021,04,17,12,20,21.10
2021,04,17,12,21,21.10
2021,04,17,12,22,21.20
2021,04,17,12,23,21.30
2021,04,17,12,24,21.40
2021,04,17,12,25,21.40
2021,04,17,12,26,21.60
2021,04,17,12,27,21.60
2021,04,17,12,28,21.60
2021,04,17,12,29,21.60
2021,04,17,12,30,21.60
2021,04,17,12,31,21.60
2021,04,17,12,32,21.60
2021,04,17,12,33,21.60
2021,04,17,12,34,21.60
2021,04,17,12,35,21.60
2021,04,17,12,36,21.60
2021,04,17,12,37,21.60
2021,04,17,12,38,21.60
2021,04,17,12,39,21.60
2021,04,17,12,40,21.60
2021,04,17,12,41,21.70
2021,04,17,12,42,21.70
2021,04,17,12,43,21.80
2021,04,17,12,44,21.80
2021,04,17,12,45,21.80
2021,04,17,12,46,21.90
2021,04,17,12,47,21.90
2021,04,17,12,48,21.90
2021,04,17,12,49,21.90
2021,04,17,12,50,22.00
2021,04,17,12,51,22.00
2021,04,17,12,52,22.10
2021,04,17,12,53,22.10
2021,04,17,12,54,22.10
2021,04,17,12,55,22.10
2021,04,17,12,56,22.10
2021,04,17,12,57,22.10
2021,04,17,12,58,22.20
2021,04,17,12,59,22.20
2021,04,17,13,00,22.20
2021,04,17,13,01,22.20
2021,04,17,13,02,22.30
2021,04,17,13,03,22.30
2021,04,17,13,04,22.30
2021,04,17,13,05,22.40
2021,04,17,13,06,22.40
2021,04,17,13,07,22.40
2021,04,17,13,08,22.40
2021,04,17,13,09,22.40
2021,04,17,13,10,22.40
2021,04,17,13,11,22.40
2021,04,17,13,12,22.40
2021,04,17,13,13,22.40
2021,04,17,13,14,22.50
2021,04,17,13,15,22.50
2021,04,17,13,16,22.50
2021,04,17,13,17,22.60
2021,04,17,13,18,22.60
2021,04,17,13,19,22.70
2021,04,17,13,20,22.70
2021,04,17,13,21,22.70
2021,04,17,13,22,22.70
2021,04,17,13,23,22.70
2021,04,17,13,24,22.60
2021,04,17,13,25,22.60
2021,04,17,13,26,22.60
2021,04,17,13,27,22.60
2021,04,17,13,28,22.60
2021,04,17,13,29,22.70
2021,04,17,13,30,22.70
2021,04,17,13,31,22.70
2021,04,17,13,32,22.70
2021,04,17,13,33,22.80
2021,04,17,13,34,22.80
2021,04,17,13,35,22.80
2021,04,17,13,36,22.80
2021,04,17,13,37,22.90
2021,04,17,13,38,22.90
2021,04,17,13,39,22.90
2021,04,17,13,40,22.90
2021,04,17,13,41,22.90
2021,04,17,13,42,22.90
2021,04,17,13,43,22.90
2021,04,17,13,44,22.90
2021,04,17,13,45,22.90
2021,04,17,13,46,22.90
2021,04,17,13,47,22.90
2021,04,17,13,48,23.00
2021,04,17,13,49,23.10
2021,04,17,13,50,23.10
2021,04,17,13,51,23.10
2021,04,17,13,52,23.10
2021,04,17,13,53,23.00
2021,04,17,13,54,23.00
2021,04,17,13,55,22.90
2021,04,17,13,56,22.90
2021,04,17,13,57,22.90
2021,04,17,13,58,22.90
2021,04,17,13,59,22.90
2021,04,17,14,00,22.90
2021,04,17,14,01,22.90
2021,04,17,14,02,22.90
2021,04,17,14,03,22.90
2021,04,17,14,04,22.90
2021,04,17,14,05,22.90
2021,04,17,14,06,22.90
2021,04,17,14,07,22.90
2021,04,17,14,08,22.90
2021,04,17,14,09,22.90
2021,04,17,14,10,22.90
2021,04,17,14,11,22.90
2021,04,17,14,12,22.90
2021,04,17,14,13,22.90
2021,04,17,14,14,22.90
2021,04,17,14,15,22.90
2021,04,17,14,16,22.90
2021,04,17,14,17,22.90
2021,04,17,14,18,23.10
2021,04,17,14,19,23.10
2021,04,17,14,20,23.20
2021,04,17,14,21,23.20
2021,04,17,14,22,23.20
2021,04,17,14,23,23.10
2021,04,17,14,24,23.10
2021,04,17,14,25,23.10
2021,04,17,14,26,23.10
2021,04,17,14,27,23.10
2021,04,17,14,28,23.10
2021,04,17,14,29,23.10
2021,04,17,14,30,23.10
2021,04,17,14,31,23.10
2021,04,17,14,32,23.10
2021,04,17,14,33,23.10
2021,04,17,14,34,23.20
2021,04,17,14,35,23.20
2021,04,17,14,36,23.10
2021,04,17,14,37,23.10
2021,04,17,14,38,23.20
2021,04,17,14,39,23.20
2021,04,17,14,40,23.20
2021,04,17,14,41,23.20
2021,04,17,14,42,23.20
2021,04,17,14,43,23.20
2021,04,17,14,44,23.20
2021,04,17,14,45,23.20
2021,04,17,14,46,23.10
2021,04,17,14,47,23.10
2021,04,17,14,48,23.10
2021,04,17,14,49,23.20
2021,04,17,14,50,23.20
2021,04,17,14,51,23.20
2021,04,17,14,52,23.20
2021,04,17,14,53,23.20
2021,04,17,14,54,23.20
2021,04,17,14,55,23.30
2021,04,17,14,56,23.30
2021,04,17,14,57,23.30
2021,04,17,14,58,23.30
2021,04,17,14,59,23.30
2021,04,17,15,00,23.40
2021,04,17,15,01,23.40
2021,04,17,15,02,23.40
2021,04,17,15,03,23.50
2021,04,17,15,04,23.60
2021,04,17,15,05,23.60
2021,04,17,15,06,23.60
2021,04,17,15,07,23.60
2021,04,17,15,08,23.60
2021,04,17,15,09,23.50
2021,04,17,15,10,23.40
2021,04,17,15,11,23.40
2021,04,17,15,12,23.40
2021,04,17,15,13,23.40
2021,04,17,15,14,23.40
2021,04,17,15,15,23.50
2021,04,17,15,16,23.60
2021,04,17,15,17,23.60
2021,04,17,15,18,23.60
2021,04,17,15,19,23.70
2021,04,17,15,20,23.70
2021,04,17,15,21,23.70
2021,04,17,15,22,23.70
2021,04,17,15,23,23.70
2021,04,17,15,24,23.70
2021,04,17,15,25,23.70
2021,04,17,15,26,23.70
2021,04,17,15,27,23.70
2021,04,17,15,28,23.70
2021,04,17,15,29,23.70
2021,04,17,15,30,23.70
2021,04,17,15,31,23.60
2021,04,17,15,32,23.40
2021,04,17,15,33,23.40
2021,04,17,15,34,23.30
2021,04,17,15,35,23.40
2021,04,17,15,36,23.40
2021,04,17,15,37,23.40
2021,04,17,15,38,23.50
2021,04,17,15,39,23.60
2021,04,17,15,40,23.60
2021,04,17,15,41,23.70
2021,04,17,15,42,23.60
2021,04,17,15,43,23.50
2021,04,17,15,44,23.40
2021,04,17,15,45,23.30
2021,04,17,15,46,23.30
2021,04,17,15,47,23.30
2021,04,17,15,48,23.30
2021,04,17,15,49,23.30
2021,04,17,15,50,23.20
2021,04,17,15,51,23.20
2021,04,17,15,52,23.30
2021,04,17,15,53,23.30
2021,04,17,15,54,23.30
2021,04,17,15,55,23.30
2021,04,17,15,56,23.30
2021,04,17,15,57,23.30
2021,04,17,15,58,23.40
2021,04,17,15,59,23.40
2021,04,17,16,00,23.50
2021,04,17,16,01,23.60
2021,04,17,16,02,23.60
2021,04,17,16,03,23.60
2021,04,17,16,04,23.60
2021,04,17,16,05,23.50
2021,04,17,16,06,23.40
2021,04,17,16,07,23.40
2021,04,17,16,08,23.30
2021,04,17,16,09,23.30
2021,04,17,16,10,23.30
2021,04,17,16,11,23.30
2021,04,17,16,12,23.30
2021,04,17,16,13,23.30
2021,04,17,16,14,23.30
2021,04,17,16,15,23.30
2021,04,17,16,16,23.30
2021,04,17,16,17,23.30
2021,04,17,16,18,23.30
2021,04,17,16,19,23.30
2021,04,17,16,20,23.30
2021,04,17,16,21,23.30
2021,04,17,16,22,23.40
2021,04,17,16,23,23.40
2021,04,17,16,24,23.50
2021,04,17,16,25,23.60
2021,04,17,16,26,23.70
2021,04,17,16,27,23.70
2021,04,17,16,28,23.70
2021,04,17,16,29,23.70
2021,04,17,16,30,23.70
2021,04,17,16,31,23.80
2021,04,17,16,32,23.80
2021,04,17,16,33,23.80
2021,04,17,16,34,23.80
2021,04,17,16,35,23.90
2021,04,17,16,36,23.90
2021,04,17,16,37,23.90
2021,04,17,16,38,23.90
2021,04,17,16,39,23.90
2021,04,17,16,40,23.90
2021,04,17,16,41,23.90
2021,04,17,16,42,23.90
2021,04,17,16,43,23.90
2021,04,17,16,44,23.90
2021,04,17,16,45,23.80
2021,04,17,16,46,23.70
2021,04,17,16,47,23.70
2021,04,17,16,48,23.70
2021,04,17,16,49,23.70
2021,04,17,16,50,23.80
2021,04,17,16,51,23.80
2021,04,17,16,52,23.80
2021,04,17,16,53,23.70
2021,04,17,16,54,23.70
2021,04,17,16,55,23.60
2021,04,17,16,56,23.60
2021,04,17,16,57,23.50
2021,04,17,16,58,23.40
2021,04,17,16,59,23.30
2021,04,17,17,00,23.30
2021,04,17,17,01,23.30
2021,04,17,17,02,23.30
2021,04,17,17,03,23.20
2021,04,17,17,04,23.20
2021,04,17,17,05,23.20
2021,04,17,17,06,23.10
2021,04,17,17,07,23.10
2021,04,17,17,08,23.00
2021,04,17,17,09,22.90
2021,04,17,17,10,22.90
2021,04,17,17,11,22.90
2021,04,17,17,12,23.10
2021,04,17,17,13,23.00
2021,04,17,17,14,23.00
2021,04,17,17,15,23.10
2021,04,17,17,16,23.10
2021,04,17,17,17,23.10
2021,04,17,17,18,23.10
2021,04,17,17,19,23.10
2021,04,17,17,20,23.10
2021,04,17,17,21,23.10
2021,04,17,17,22,23.10
2021,04,17,17,23,23.10
2021,04,17,17,24,23.00
2021,04,17,17,25,22.90
2021,04,17,17,26,22.90
2021,04,17,17,27,22.90
2021,04,17,17,28,22.90
2021,04,17,17,29,22.90
2021,04,17,17,30,22.90
2021,04,17,17,31,22.90
2021,04,17,17,32,22.90
2021,04,17,17,33,22.90
2021,04,17,17,34,22.90
2021,04,17,17,35,22.90
2021,04,17,17,36,22.90
2021,04,17,17,37,22.90
2021,04,17,17,38,22.90
2021,04,17,17,39,22.90
2021,04,17,17,40,23.00
2021,04,17,17,41,23.10
2021,04,17,17,42,23.10
2021,04,17,17,43,23.10
2021,04,17,17,44,23.10
2021,04,17,17,45,23.10
2021,04,17,17,46,23.10
2021,04,17,17,47,23.10
2021,04,17,17,48,23.10
2021,04,17,17,49,23.10
2021,04,17,17,50,23.20
2021,04,17,17,51,23.20
2021,04,17,17,52,23.20
2021,04,17,17,53,23.20
2021,04,17,17,54,23.20
2021,04,17,17,55,23.20
2021,04,17,17,56,23.20
2021,04,17,17,57,23.20
2021,04,17,17,58,23.10
2021,04,17,17,59,23.10
2021,04,17,18,00,23.10
2021,04,17,18,01,23.10
2021,04,17,18,02,23.20
2021,04,17,18,03,23.20
2021,04,17,18,04,23.20
2021,04,17,18,05,23.20
2021,04,17,18,06,23.20
2021,04,17,18,07,23.20
2021,04,17,18,08,23.20
2021,04,17,18,09,23.10
2021,04,17,18,10,23.10
2021,04,17,18,11,23.00
2021,04,17,18,12,22.90
2021,04,17,18,13,22.90
2021,04,17,18,14,22.90
2021,04,17,18,15,22.90
2021,04,17,18,16,22.60
2021,04,17,18,17,22.40
2021,04,17,18,18,22.10
2021,04,17,18,19,21.90
2021,04,17,18,20,21.70
2021,04,17,18,21,21.50
2021,04,17,18,22,21.30
2021,04,17,18,23,21.10
2021,04,17,18,24,20.90
2021,04,17,18,25,20.90
2021,04,17,18,26,20.90
2021,04,17,18,27,20.90
2021,04,17,18,28,20.90
2021,04,17,18,29,20.90
2021,04,17,18,30,20.90
2021,04,17,18,31,20.90
2021,04,17,18,32,20.90
2021,04,17,18,33,20.90
2021,04,17,18,34,20.90
